International Skating Union - Official Site

ISU World Cup Astana
December 2-4, 2016

Draw | Lap Times | Index | World Cup

Referee: Bjørn  PETTERSEN  (NOR)
Starter: Jan  ZWIER  (NED)
StartTime: EndTime: Air Temp: Ice Temp: Humidity:
19:34 19:56 16.5 ℃ -6.1 ℃ 39.0
Result Team Pursuit Ladies
Rankings as of Dec 3 2016 8:06PM
Rank: No.: Team: Nation: Time: Behind: Points:
Total 9
1 1 Japan (249) Miho Takagi (246) Misaki Oshigiri (250) Nana Takagi (247) Ayano Sato JPN JPN 2:57.750.5 - 18.55 - (18.5)
1.0 - 32.65 - (14.0)
1.5 - 46.77 - (14.1)
2.0 - 1:00.92 - (14.1)
2.5 - 1:15.40 - (14.4)
3.0 - 1:29.86 - (14.4)
3.5 - 1:44.35 - (14.4)
4.0 - 1:58.92 - (14.5)
4.5 - 2:13.35 - (14.4)
5.0 - 2:27.86 - (14.5)
5.5 - 2:42.69 - (14.8)
6.0 - 2:57.75 - (15.0)
100
2 2 Netherlands (267) Marrit Leenstra (265) Linda de Vries (264) Antoinette de Jong NED NED 3:02.530.5 - 18.67 - (18.6)
1.0 - 32.75 - (14.0)
1.5 - 47.34 - (14.5)
2.0 - 1:01.76 - (14.4)
2.5 - 1:16.41 - (14.6)
3.0 - 1:30.91 - (14.5)
3.5 - 1:45.42 - (14.5)
4.0 - 2:00.38 - (14.9)
4.5 - 2:15.40 - (15.0)
5.0 - 2:30.76 - (15.3)
5.5 - 2:46.49 - (15.7)
6.0 - 3:02.53 - (16.0)
4.78 80
3 3 Russia (292) Natalia Voronina (288) Elizaveta Kazelina (287) Olga Graf (290) Yekaterina Shikhova RUS RUS 3:02.780.5 - 19.23 - (19.2)
1.0 - 33.75 - (14.5)
1.5 - 48.20 - (14.4)
2.0 - 1:02.71 - (14.5)
2.5 - 1:17.38 - (14.6)
3.0 - 1:31.95 - (14.5)
3.5 - 1:46.78 - (14.8)
4.0 - 2:01.68 - (14.9)
4.5 - 2:16.96 - (15.2)
5.0 - 2:32.00 - (15.0)
5.5 - 2:47.25 - (15.2)
6.0 - 3:02.78 - (15.5)
5.03 70
4 4 Poland (282) Luiza Zlotkowska (279) Natalia Czerwonka (281) Katarzyna Wozniak (280) Magdalena Czyszczon POL POL 3:03.580.5 - 19.08 - (19.0)
1.0 - 33.60 - (14.5)
1.5 - 47.70 - (14.1)
2.0 - 1:02.08 - (14.3)
2.5 - 1:16.33 - (14.2)
3.0 - 1:30.90 - (14.5)
3.5 - 1:45.39 - (14.4)
4.0 - 2:00.29 - (14.9)
4.5 - 2:15.47 - (15.1)
5.0 - 2:31.32 - (15.8)
5.5 - 2:47.45 - (16.1)
6.0 - 3:03.58 - (16.1)
5.83 60
5 5 Germany (237) Gabriele Hirschbichler (236) Roxane Dufter (240) Claudia Pechstein (238) Bente Kraus GER GER 3:03.890.5 - 19.19 - (19.1)
1.0 - 33.38 - (14.1)
1.5 - 47.62 - (14.2)
2.0 - 1:01.91 - (14.2)
2.5 - 1:16.44 - (14.5)
3.0 - 1:31.27 - (14.8)
3.5 - 1:46.12 - (14.8)
4.0 - 2:01.20 - (15.0)
4.5 - 2:16.82 - (15.6)
5.0 - 2:32.50 - (15.6)
5.5 - 2:48.14 - (15.6)
6.0 - 3:03.89 - (15.7)
6.14 50
6 7 Korea (262) Ji Woo Park (261) Seon-Yeong Noh (257) Bo-Reum Kim KOR KOR 3:04.620.5 - 19.32 - (19.3)
1.0 - 33.71 - (14.3)
1.5 - 48.12 - (14.4)
2.0 - 1:02.59 - (14.4)
2.5 - 1:17.28 - (14.6)
3.0 - 1:32.21 - (14.9)
3.5 - 1:47.27 - (15.0)
4.0 - 2:02.46 - (15.1)
4.5 - 2:18.06 - (15.6)
5.0 - 2:33.59 - (15.5)
5.5 - 2:49.04 - (15.4)
6.0 - 3:04.62 - (15.5)
6.87 45
7 9 USA (295) Mia Manganello (294) Kelly Gunther (296) Paige Schwartzburg (297) Sugar Todd USA USA 3:08.960.5 - 19.51 - (19.5)
1.0 - 34.44 - (14.9)
1.5 - 49.37 - (14.9)
2.0 - 1:04.18 - (14.8)
2.5 - 1:19.20 - (15.0)
3.0 - 1:34.42 - (15.2)
3.5 - 1:49.95 - (15.5)
4.0 - 2:05.85 - (15.8)
4.5 - 2:21.77 - (15.9)
5.0 - 2:37.60 - (15.8)
5.5 - 2:53.37 - (15.7)
6.0 - 3:08.96 - (15.5)
11.21 40
8 6 China (225) Xin Zhao (221) Moyuan Xu (220) Jiaying Tao (216) Qishi Li CHN CHN 3:12.250.5 - 19.24 - (19.2)
1.0 - 34.12 - (14.8)
1.5 - 48.73 - (14.6)
2.0 - 1:03.94 - (15.2)
2.5 - 1:19.46 - (15.5)
3.0 - 1:35.25 - (15.7)
3.5 - 1:50.68 - (15.4)
4.0 - 2:06.47 - (15.7)
4.5 - 2:22.77 - (16.3)
5.0 - 2:39.63 - (16.8)
5.5 - 2:55.96 - (16.3)
6.0 - 3:12.25 - (16.2)
14.50 35
9 10 Canada (210) Brianne Tutt (205) Ivanie Blondin (211) Isabelle Weidemann CAN CAN DNF0.5 - 19.54 - (19.5)
1.0 - 34.23 - (14.6)
1.5 - 48.97 - (14.7)
2.0 - 1:03.79 - (14.8)
2.5 - 1:18.75 - (14.9)
3.0 - 1:33.63 - (14.8)
3.5 - 1:48.83 - (15.2)
0